"Pseudo-MPEC" for R000503

Created 2023 Sep 27 1:22:18 UT using Find_Orb

Click here for an explanation of pseudo-MPECs

 
 Astrometry: 
     R000503* C2023 09 13qWB8W4rDon8CfmAstrometry)%5D@b1N$Wredacted;agAJ)8'%QY16
     R000503  C2023 09 13^:#]cLu-hbclickTKZY:XSi\[hereCforHBGQZN1egKCJhIEOka*Y16
     R000503  C2023 09 13u=W-KYw-:w*=?QnT%%sl*ppM?p0W`M-$^:Oqk\fiexplanation@Y16

Station data:
(Y16) ROCG, Campos dos Goytacazes  (S21.745263 W41.312060)  Brazil.  Observer
   C. H. Barreto. 0.25-m f/4.8 reflector + CCD.

Orbital elements:  R000503
   Perihelion 2023 Aug 3.41427 +/- 28.2 TT =  9:56:32 (JD 2460159.91427)
Epoch 2023 Sep 13.0 TT = JDT 2460200.5   Earth MOID: 0.0125      AutoNEOCP
M   7.33314348 +/- 38               (J2000 ecliptic)
n   0.18068278 +/- 0.35             Peri.   43.16628 +/- 70
a   3.09878557 +/- 4                Node   162.99372 +/- 57
e   0.9503477 +/- 0.236             Incl.   73.71833 +/- 28
P   5.45                   H 18.71  G  0.15   U 12.0  SR
q 0.15386181 +/- 0.369    Q 6.04370934 +/- 28.2
From 3 observations 2023 Sept. 13 (11.2 min); mean residual 0".23
Residuals in arcseconds: 
230913 Y16  .07-  .20-    230913 Y16  .16+  .43+    230913 Y16  .09-  .23-    

Ephemerides (geocentric):
Date (UTC) HH   RA             Dec           delta  r     elong  mag " sig PA
---- --------  ------------   ------------  ------ ------ -----  --- --------
2023 09 27 01  21 03 58.105   -38 13 05.77  .53555 1.3604 121.4 19.6  23d 127
2023 09 27 02  21 04 00.606   -38 12 45.11  .53669 1.3611 121.3 19.6  23d 127
2023 09 27 03  21 04 03.103   -38 12 24.48  .53782 1.3618 121.3 19.6  23d 127
2023 09 27 04  21 04 05.596   -38 12 03.88  .53896 1.3625 121.3 19.6  23d 127
2023 09 27 05  21 04 08.086   -38 11 43.32  .54010 1.3632 121.3 19.6  23d 127
2023 09 27 06  21 04 10.572   -38 11 22.78  .54123 1.3640 121.2 19.6  23d 127
2023 09 27 07  21 04 13.055   -38 11 02.28  .54237 1.3647 121.2 19.6  23d 127
2023 09 27 08  21 04 15.534   -38 10 41.81  .54351 1.3654 121.2 19.6  23d 127
2023 09 27 09  21 04 18.010   -38 10 21.37  .54464 1.3661 121.1 19.6  23d 127
2023 09 27 10  21 04 20.482   -38 10 00.97  .54578 1.3668 121.1 19.6  24d 127
2023 09 27 11  21 04 22.951   -38 09 40.59  .54692 1.3675 121.1 19.6  24d 127
2023 09 27 12  21 04 25.416   -38 09 20.24  .54805 1.3682 121.1 19.6  24d 127
2023 09 27 13  21 04 27.878   -38 08 59.93  .54919 1.3689 121.0 19.6  24d 127
2023 09 27 14  21 04 30.337   -38 08 39.64  .55033 1.3696 121.0 19.6  24d 127
2023 09 27 15  21 04 32.792   -38 08 19.39  .55146 1.3703 121.0 19.7  24d 128
2023 09 27 16  21 04 35.244   -38 07 59.16  .55260 1.3710 120.9 19.7  24d 128
2023 09 27 17  21 04 37.693   -38 07 38.96  .55374 1.3718 120.9 19.7  24d 128
2023 09 27 18  21 04 40.139   -38 07 18.79  .55487 1.3725 120.9 19.7  24d 128
2023 09 27 19  21 04 42.581   -38 06 58.66  .55601 1.3732 120.9 19.7  24d 128
2023 09 27 20  21 04 45.021   -38 06 38.55  .55715 1.3739 120.8 19.7  24d 128
2023 09 27 21  21 04 47.457   -38 06 18.47  .55829 1.3746 120.8 19.7  24d 128
2023 09 27 22  21 04 49.890   -38 05 58.41  .55942 1.3753 120.8 19.7  24d 128
2023 09 27 23  21 04 52.320   -38 05 38.39  .56056 1.3760 120.8 19.7  24d 128
2023 09 28 00  21 04 54.747   -38 05 18.39  .56170 1.3767 120.7 19.7  24d 128
2023 09 28 01  21 04 57.171   -38 04 58.42  .56284 1.3774 120.7 19.7  24d 128
2023 09 28 02  21 04 59.592   -38 04 38.48  .56397 1.3781 120.7 19.7  24d 128
2023 09 28 03  21 05 02.010   -38 04 18.57  .56511 1.3788 120.6 19.7  24d 128
2023 09 28 04  21 05 04.425   -38 03 58.68  .56625 1.3795 120.6 19.7  24d 128
2023 09 28 05  21 05 06.837   -38 03 38.82  .56739 1.3802 120.6 19.7  24d 128
2023 09 28 06  21 05 09.246   -38 03 18.99  .56853 1.3809 120.6 19.7  24d 128
2023 09 28 07  21 05 11.652   -38 02 59.18  .56966 1.3816 120.5 19.7  24d 128
2023 09 28 08  21 05 14.056   -38 02 39.40  .57080 1.3823 120.5 19.7  24d 128
2023 09 28 09  21 05 16.457   -38 02 19.64  .57194 1.3831 120.5 19.7  24d 128
2023 09 28 10  21 05 18.855   -38 01 59.92  .57308 1.3838 120.5 19.8  24d 128
2023 09 28 11  21 05 21.250   -38 01 40.21  .57422 1.3845 120.4 19.8  24d 128
2023 09 28 12  21 05 23.642   -38 01 20.54  .57535 1.3852 120.4 19.8  24d 128
2023 09 28 13  21 05 26.032   -38 01 00.89  .57649 1.3859 120.4 19.8  24d 128
2023 09 28 14  21 05 28.419   -38 00 41.26  .57763 1.3866 120.3 19.8  24d 128
2023 09 28 15  21 05 30.804   -38 00 21.66  .57877 1.3873 120.3 19.8  24d 128
2023 09 28 16  21 05 33.185   -38 00 02.08  .57991 1.3880 120.3 19.8  24d 128
2023 09 28 17  21 05 35.565   -37 59 42.53  .58105 1.3887 120.3 19.8  24d 128
2023 09 28 18  21 05 37.941   -37 59 23.00  .58219 1.3894 120.2 19.8  24d 128
2023 09 28 19  21 05 40.315   -37 59 03.50  .58332 1.3901 120.2 19.8  24d 128
2023 09 28 20  21 05 42.687   -37 58 44.02  .58446 1.3908 120.2 19.8  24d 128
2023 09 28 21  21 05 45.056   -37 58 24.56  .58560 1.3915 120.1 19.8  24d 128
2023 09 28 22  21 05 47.422   -37 58 05.13  .58674 1.3922 120.1 19.8  24d 128
2023 09 28 23  21 05 49.786   -37 57 45.72  .58788 1.3929 120.1 19.8  24d 128
2023 09 29 00  21 05 52.147   -37 57 26.34  .58902 1.3936 120.1 19.8  24d 128